Regional Weather Roundup
Issued by NWS

Home | Current Version | Previous Version | Text Only | Print | Product List | Glossary On
Versions: 1 2 3 4 5 6 7 8 9 10 11 12 13 14 15 16 17 18 19 20 21 22 23 24 25 26 27 28 29 30 31 32 33 34 35 36 37 38 39 40 41 42 43 44 45 46 47 48 49 50
000
ASUS45 KCYS 070710
RWRWY

WYOMING REGIONAL WEATHER ROUNDUP
NATIONAL WEATHER SERVICE CHEYENNE WY
100 AM MDT THU MAY 07 2015

NOTE:  "FAIR" INDICATES FEW OR NO CLOUDS BELOW 12,000 FEET
WITH NO SIGNIFICANT WEATHER AND/OR OBSTRUCTIONS TO VISIBILITY.

WYZ001-070800-
YELLOWSTONE NATIONAL PARK

CITY           SKY/WX    TMP DP  RH WIND       PRES   REMARKS
LK YELLOWSTONE   N/A     33  31  92 NE5       29.91R WCI  29
W YELLOWSTONE  NOT AVBL

$$
WYZ002>013-054>058-071-098>099-070800-
NORTHERN WYOMING

CITY           SKY/WX    TMP DP  RH WIND       PRES   REMARKS
JACKSON        CLOUDY    39  39 100 N12       29.84R WCI  32
CODY           CLOUDY    45  30  57 N13G21    29.93R
GREYBULL       CLOUDY    48  43  82 S5        29.88R
WORLAND        CLOUDY    48  38  68 W6        29.88R
SHERIDAN       CLOUDY    46  39  76 W9        29.94R
BUFFALO        CLOUDY    45  36  70 NW21G29   29.93R
GILLETTE       CLOUDY    45  40  82 NW10      29.89R
HULETT         CLOUDY    45  43  93 N13       29.87R
NEWCASTLE      LGT RAIN  43  43 100 NW12G18   29.82R

$$
WYZ014>020-022>026-101>103-070800-
CENTRAL WYOMING

CITY           SKY/WX    TMP DP  RH WIND       PRES   REMARKS
BIG PINEY      LGT RAIN  41  38  89 S15G25    29.86R
PINEDALE       RAIN      41  39  93 E5        29.85S
DUBOIS         DRIZZLE   34  34 100 SE16      29.88S WCI  23
LANDER         LGT RAIN  41  39  93 NE9       29.91R FOG
RIVERTON       LGT RAIN  42  40  92 E5        29.92R
CASPER         CLOUDY    39  37  92 SE5       29.92S
DOUGLAS        LGT RAIN  42  40  92 NW12      29.91S

$$
WYZ021-027>030-104>119-070800-
SOUTHERN WYOMING

CITY           SKY/WX    TMP DP  RH WIND       PRES   REMARKS
EVANSTON       CLOUDY    40  38  93 SW8       29.83R WCI  34
KEMMERER       CLOUDY    39  37  93 E9        29.84F WCI  33
FORT BRIDGER   CLOUDY    43  43 100 CALM      29.86R
ROCK SPRINGS   LGT RAIN  41  39  93 E20       29.85R
DIXON          CLOUDY    45  41  87 CALM      29.90R
RAWLINS        LGT RAIN  39  38  96 NE13      29.90S WCI  31
SARATOGA       DRIZZLE   41  37  87 CALM      29.90S
LARAMIE        CLOUDY    39  38  96 N10       29.89S WCI  32
CHEYENNE       LGT RAIN  41  38  89 N10G18    29.87S
TORRINGTON     CLOUDY    48  42  80 NW17G26   29.82R
PINE BLUFFS    CLOUDY    43  41  93 NW15      29.86S

$$



USA.gov is the U.S. government's official web portal to all federal, state and local government web resources and services.